Location: Agadir Irigdalene
(31.2522°N, 8.7797°W)
Time: 14:43:17
(UTC+00:00)

YAOGAN 6 - Pass Details

Date: 01 December 2020
Orbit: 466 x 502 km, 97.0° (Epoch: 25 January)

Event Time Altitude Azimuth Distance (km) Brightness Sun altitude
Rises 18:15:35 0° 184° (S) 2,569 6.6 -9.4°
Reaches altitude 10° 18:17:46 10° 193° (SSW) 1,686 5.8 -9.8°
Maximum altitude 18:21:09 37° 262° (W) 785 4.4 -10.5°
Drops below altitude 10° 18:24:31 10° 330° (NNW) 1,679 5.4 -11.2°
Sets 18:26:41 0° 339° (NNW) 2,557 6.3 -11.6°
